Погода в Мартапуре

Индонезия     3°26′36″S   114°49′36″E
темп.,
°C
ветер,
м/с
пор.,
м/с
влажн.,
%
обл.,
%
осадки,
мм/ч
давл.,
гПа
погр.,
м
2 марта, вт
вт223:00+25юв117733 0.0 101124
02:00+25в117965 0.0 101024
05:00+24св118297 0.0 100924
08:00+26ссв127695 0.0 1010175
11:00+33с235060 0.0 10111141
14:00+35з224235 0.0 10081973
17:00+31юз355951 0.0 1007638
20:00+26ю248275 0.0 1009129
3 марта, ср
ср323:00+25ююв1290100 1.1 101027
02:00+24ююв1293100 1.8 101026
05:00+24вюв119392 0.1 100928
08:00+25св249295 0.5 1011180
11:00+27с2586100 6.0 1012295
14:00+24с3795100 9.6 1010377
17:00+23ссв2698100 2.1 1009306
20:00+23в2397100 3.2 1011126
4 марта, чт
чт423:00+23всв1192100 0.1 101224
02:00+23ссв1190100 0.1 101128
05:00+22ссв1397100 0.0 1010115
08:00+24св129197 0.0 1012182
11:00+32ссв115559 0.0 1012876
14:00+36юз114433 0.0 10091797
17:00+30юз346064 0.1 1007501
20:00+25ю228473 0.4 101049
5 марта, пт
пт523:00+24ю228970 0.3 101150
02:00+24ююв128884 0.3 101026
05:00+24юв1189100 0.1 101024
08:00+26св1282100 0.3 1012140
11:00+34в015271 0.2 10111294
14:00+31з236550 3.9 10081050
17:00+29зюз1373100 3.1 1008332
20:00+26ююв0181100 3.4 101024
6 марта, сб
сб623:00+24ссв3794100 0.9 1012259
02:00+23св2597100 0.9 1010324
05:00+23св1396100 0.0 1009129
08:00+24ссв248997 0.0 1011308
11:00+31ссв346210 0.0 1011962
14:00+33ссв33525 0.0 10081449
17:00+30с137445 3.0 1007520
20:00+26с019073 14.5 101024